Date String (YYYY-MM-DD hh:mm:ss) UTC,Instrument flags,absolute air pressure of the measurement (hPa),sample flow rate (lpm),inlet stack bypass flow (lpm),air temperature of the measurement (°C),ambient temperature measured by the external sensor (°C),aerosol sample conditioner tube jacket temperature (°C),OPC LED temperature (°C),internal box temperature (°C),relative humidity of the measurement (%),span deviation,mass concentration of particles derived from Lorenz-Mie calculation of OPC scattering (μg/m³),mass concentration of particles derived from Lorenz-Mie calculation of OPC scattering (μg/m³),mass concentration of particles derived from Lorenz-Mie calculation of OPC scattering (μg/m³)
DateTimeUTC,F1_M11,P_M11,Q1_M11,Q2_M11,T1_M11,T2_M11,T3_M11,T4_M11,T5_M11,U1_M11,ZSPAN_M11,X0_M11,X2_M11,X1_M11
2023-12-17 11:00:00,SystemResetWarning,0830.1,5.00,000.00,022.6,021.6,000.0,030.9,024.0,7.0,0000.0,0002.31,0000.44,0000.32
2023-12-17 11:01:00,SystemResetWarning,0830.1,4.99,000.00,022.6,021.7,000.0,030.9,024.0,7.0,0000.0,0001.11,0000.43,0000.32
2023-12-17 11:02:00,SystemResetWarning,0830.1,4.99,000.00,022.6,021.7,000.0,030.9,024.1,7.0,0000.0,0001.21,0000.45,0000.32
2023-12-17 11:03:00,SystemResetWarning,0830.1,5.01,000.00,022.7,021.7,000.0,030.9,024.0,7.0,0000.0,0001.21,0000.44,0000.31
2023-12-17 11:04:00,SystemResetWarning,0830.1,5.01,000.00,022.7,021.7,000.0,030.9,024.1,7.0,0000.0,0001.18,0000.43,0000.31
2023-12-17 11:05:00,SystemResetWarning,0830.1,5.01,000.00,022.7,021.7,000.0,030.9,024.1,7.0,0000.0,0001.06,0000.41,0000.30
2023-12-17 11:06:00,SystemResetWarning,0830.0,5.00,000.00,022.7,021.8,000.0,030.9,024.1,7.0,0000.0,0001.00,0000.39,0000.30
2023-12-17 11:07:00,SystemResetWarning,0830.0,5.00,000.00,022.7,021.8,000.0,030.9,024.1,7.0,0000.0,0000.99,0000.39,0000.31
2023-12-17 11:08:00,SystemResetWarning,0830.1,5.00,000.00,022.7,021.8,000.0,030.9,024.2,7.0,0000.0,0000.92,0000.36,0000.31
2023-12-17 11:09:00,SystemResetWarning,0830.1,4.99,000.00,022.7,021.8,000.0,030.9,024.2,7.0,0000.0,0000.88,0000.36,0000.31
2023-12-17 11:10:00,SystemResetWarning,0830.1,4.99,000.00,022.7,021.8,000.0,030.9,024.2,6.9,0000.0,0000.66,0000.34,0000.30
2023-12-17 11:11:00,SystemResetWarning,0830.0,5.00,000.00,022.8,021.8,000.0,031.0,024.2,6.9,0000.0,0000.58,0000.34,0000.30
2023-12-17 11:12:00,SystemResetWarning,0830.1,5.00,000.00,022.8,021.8,000.0,031.0,024.2,6.9,0000.0,0000.50,0000.34,0000.30
2023-12-17 11:13:00,SystemResetWarning,0830.1,5.01,000.00,022.8,021.8,000.0,031.0,024.2,6.9,0000.0,0000.42,0000.33,0000.31
2023-12-17 11:14:00,SystemResetWarning,0830.1,5.01,000.00,022.8,021.9,000.0,031.0,024.2,6.9,0000.0,0000.50,0000.34,0000.32
2023-12-17 11:15:00,SystemResetWarning,0830.1,4.99,000.00,022.8,021.9,000.0,031.0,024.2,6.9,0000.0,0001.00,0000.35,0000.32
2023-12-17 11:16:00,SystemResetWarning,0830.1,4.99,000.00,022.8,021.9,000.0,031.0,024.2,6.8,0000.0,0001.54,0000.36,0000.32
2023-12-17 11:17:00,SystemResetWarning,0830.1,5.00,000.00,022.8,021.9,000.0,031.0,024.2,6.8,0000.0,0001.55,0000.36,0000.32
2023-12-17 11:18:00,SystemResetWarning,0830.2,5.00,000.00,022.8,021.9,000.0,031.0,024.2,6.7,0000.0,0001.54,0000.35,0000.31
2023-12-17 11:19:00,SystemResetWarning,0830.2,5.00,000.00,022.8,021.9,000.0,031.0,024.2,6.7,0000.0,0001.54,0000.35,0000.32
2023-12-17 11:20:00,SystemResetWarning,0830.2,5.00,000.00,022.8,021.9,000.0,031.0,024.2,6.8,0000.0,0001.55,0000.36,0000.32
2023-12-17 11:21:00,SystemResetWarning,0830.2,5.00,000.00,022.8,021.9,000.0,031.0,024.2,6.8,0000.0,0001.57,0000.37,0000.32
2023-12-17 11:22:00,SystemResetWarning,0830.2,5.00,000.00,022.8,021.9,000.0,031.0,024.2,6.8,0000.0,0002.25,0000.38,0000.33
2023-12-17 11:23:00,SystemResetWarning,0830.2,5.01,000.00,022.8,021.9,000.0,031.1,024.2,6.9,0000.0,0002.73,0000.38,0000.33
2023-12-17 11:24:00,SystemResetWarning,0830.2,5.00,000.00,022.9,021.9,000.0,031.1,024.3,6.8,0000.0,0002.71,0000.38,0000.33
2023-12-17 11:25:00,SystemResetWarning,0830.2,5.00,000.00,022.9,021.9,000.0,031.1,024.3,6.8,0000.0,0002.61,0000.37,0000.32
2023-12-17 11:26:00,SystemResetWarning,0830.2,5.00,000.00,022.9,021.9,000.0,031.1,024.3,6.7,0000.0,0002.41,0000.36,0000.32
2023-12-17 11:27:00,SystemResetWarning,0830.2,5.01,000.00,022.9,021.9,000.0,031.1,024.3,6.6,0000.0,0001.57,0000.36,0000.32
2023-12-17 11:28:00,SystemResetWarning,0830.3,5.00,000.00,022.9,022.0,000.0,031.1,024.3,6.5,0000.0,0001.60,0000.37,0000.33
2023-12-17 11:29:00,SystemResetWarning,0830.2,5.00,000.00,022.9,022.0,000.0,031.1,024.3,6.5,0000.0,0001.63,0000.38,0000.32
2023-12-17 11:30:00,SystemResetWarning,0830.2,4.99,000.00,022.9,022.0,000.0,031.1,024.3,6.5,0000.0,0001.63,0000.38,0000.32
2023-12-17 11:31:00,SystemResetWarning,0830.3,4.99,000.00,022.9,022.0,000.0,031.1,024.3,6.6,0000.0,0001.64,0000.39,0000.32
2023-12-17 11:32:00,SystemResetWarning,0830.2,5.02,000.00,022.9,022.0,000.0,031.1,024.3,6.5,0000.0,0001.63,0000.38,0000.32
2023-12-17 11:33:00,SystemResetWarning,0830.2,5.01,000.00,022.9,022.0,000.0,031.1,024.3,6.4,0000.0,0001.07,0000.37,0000.32
2023-12-17 11:34:00,SystemResetWarning,0830.2,5.00,000.00,022.9,021.9,000.0,031.1,024.2,6.4,0000.0,0000.46,0000.36,0000.32
2023-12-17 11:35:00,SystemResetWarning,0830.3,4.99,000.00,022.9,021.9,000.0,031.1,024.2,6.6,0000.0,0000.46,0000.36,0000.32
2023-12-17 11:36:00,SystemResetWarning,0830.2,4.99,000.00,022.9,021.9,000.0,031.1,024.2,6.4,0000.0,0000.45,0000.36,0000.32
2023-12-17 11:37:00,SystemResetWarning,0830.3,5.01,000.00,022.9,021.9,000.0,031.1,024.2,6.4,0000.0,0001.09,0000.36,0000.32
2023-12-17 11:38:00,SystemResetWarning,0830.3,5.01,000.00,022.9,021.9,000.0,031.1,024.2,6.4,0000.0,0001.12,0000.36,0000.32
2023-12-17 11:39:00,SystemResetWarning,0830.2,5.00,000.00,022.9,021.9,000.0,031.1,024.2,6.5,0000.0,0001.11,0000.36,0000.31
2023-12-17 11:40:00,SystemResetWarning,0830.2,5.00,000.00,022.9,021.9,000.0,031.1,024.2,6.4,0000.0,0001.08,0000.34,0000.31
2023-12-17 11:41:00,SystemResetWarning,0830.2,5.00,000.00,022.9,021.9,000.0,031.1,024.2,6.5,0000.0,0001.11,0000.36,0000.31
2023-12-17 11:42:00,SystemResetWarning,0830.2,4.99,000.00,022.9,021.9,000.0,031.1,024.2,6.5,0000.0,0001.15,0000.37,0000.31
2023-12-17 11:43:00,SystemResetWarning,0830.3,5.01,000.00,022.9,021.9,000.0,031.1,024.2,6.5,0000.0,0001.18,0000.38,0000.31
2023-12-17 11:44:00,SystemResetWarning,0830.3,5.01,000.00,022.9,021.9,000.0,031.1,024.2,6.4,0000.0,0001.18,0000.38,0000.30
2023-12-17 11:45:00,SystemResetWarning,0830.2,5.00,000.00,022.9,021.9,000.0,031.1,024.2,6.4,0000.0,0001.21,0000.38,0000.30
2023-12-17 11:46:00,SystemResetWarning,0830.3,4.99,000.00,022.9,021.9,000.0,031.1,024.2,6.4,0000.0,0001.24,0000.39,0000.30
2023-12-17 11:47:00,SystemResetWarning,0830.2,5.00,000.00,022.9,021.8,000.0,031.1,024.2,6.6,0000.0,0001.28,0000.41,0000.31
2023-12-17 11:48:00,SystemResetWarning,0830.2,5.00,000.00,022.9,021.8,000.0,031.1,024.2,6.7,0000.0,0000.66,0000.41,0000.30
2023-12-17 11:49:00,SystemResetWarning,0830.2,5.01,000.00,022.9,021.8,000.0,031.1,024.2,6.9,0000.0,0000.61,0000.40,0000.30
2023-12-17 11:50:00,SystemResetWarning,0830.2,5.01,000.00,022.9,021.8,000.0,031.1,024.2,6.6,0000.0,0000.72,0000.39,0000.30
2023-12-17 11:51:00,SystemResetWarning,0830.3,4.99,000.00,022.9,021.8,000.0,031.1,024.2,6.6,0000.0,0000.80,0000.39,0000.29
2023-12-17 11:52:00,SystemResetWarning,0830.3,4.99,000.00,022.9,021.8,000.0,031.1,024.2,6.5,0000.0,0000.77,0000.38,0000.30
2023-12-17 11:53:00,SystemResetWarning,0830.2,5.02,000.00,022.8,021.8,000.0,031.1,024.2,6.5,0000.0,0000.73,0000.36,0000.30
2023-12-17 11:54:00,SystemResetWarning,0830.2,5.01,000.00,022.8,021.8,000.0,031.1,024.2,6.5,0000.0,0000.75,0000.37,0000.31
2023-12-17 11:55:00,SystemResetWarning,0830.1,4.99,000.00,022.8,021.8,000.0,031.1,024.2,6.5,0000.0,0000.83,0000.40,0000.32
2023-12-17 11:56:00,SystemResetWarning,0830.1,5.00,000.00,022.8,021.8,000.0,031.1,024.2,6.6,0000.0,0000.84,0000.40,0000.32
2023-12-17 11:57:00,SystemResetWarning,0830.1,4.99,000.00,022.8,021.8,000.0,031.1,024.1,6.8,0000.0,0000.84,0000.40,0000.32
2023-12-17 11:58:00,SystemResetWarning,0830.1,5.00,000.00,022.8,021.7,000.0,031.1,024.1,7.0,0000.0,0000.81,0000.39,0000.32
2023-12-17 11:59:00,SystemResetWarning,0830.1,5.00,000.00,022.8,021.7,000.0,031.1,024.1,7.1,0000.0,0000.82,0000.40,0000.32
